CAPE
0 0 0 0 0 0 0 0 0 0 0 0 0 0 0 0 0 0 0 0 0 0 0 155 362 336 181 33 8 27 0 0 0 0 0 0 0 0 0 0 0 0 0 0
0 0 0 0 0 0 0 0 0 0 0 0 0 0 0 0 0 0 0 0 0 0 0 85 195 239 160 79 23 2 0 0 0 0 0 0 0 0 0 0 0 0 0 0
0 0 0 0 0 0 0 0 0 0 0 0 0 0 0 0 0 0 0 0 0 0 0 4 118 142 147 57 19 0 0 0 0 0 0 0 0 0 0 0 0 0 0 0
0 0 0 0 0 0 0 0 0 0 0 0 0 0 0 0 0 0 0 0 0 0 0 0 74 98 36 9 2 2 0 0 0 0 0 0 0 0 0 0 0 0 0 0
0 0 0 0 0 0 0 0 0 0 0 0 0 0 0 0 0 0 0 0 0 0 0 0 95 77 67 10 0 0 0 0 0 0 0 0 0 0 0 0 0 0 0 0
0 0 0 0 0 0 0 0 0 0 0 0 0 0 0 0 0 0 0 0 0 0 0 0 66 172 27 2 2 0 0 0 0 0 0 0 0 0 0 0 0 0 0 0
0 0 0 0 0 0 0 0 0 0 0 0 0 0 0 0 0 0 0 0 0 0 0 0 0 42 12 1 1 0 0 0 0 0 0 0 0 0 0 0 0 0 0 0
0 0 0 0 0 0 0 0 0 0 0 0 0 0 0 0 0 0 0 0 0 0 0 0 0 31 12 4 3 0 0 0 0 0 0 0 0 0 0 0 0 0 0 0
0 0 0 0 0 0 0 0 0 0 0 0 0 0 0 0 0 0 0 0 0 0 0 0 0 8 41 24 34 5 0 0 0 0 0 0 0 0 0 0 0 0 0 0
0 0 0 0 0 0 0 0 0 0 0 0 0 0 0 0 0 0 0 0 0 0 0 0 0 0 66 119 123 71 28 0 0 0 0 0 0 0 0 0 0 0 0 0
0 0 0 0 0 0 0 0 0 0 0 0 0 0 0 0 0 0 0 0 0 0 0 0 0 0 3 118 138 106 51 35 1 1 0 0 0 0 0 0 0 0 0 0
0 0 0 0 0 0 0 0 0 0 0 0 0 0 0 0 0 0 0 0 0 0 0 0 0 0 0 40 135 101 67 7 9 4 1 1 1 0 0 0 0 0 0 0
0 0 0 0 0 0 0 0 0 0 0 0 0 0 0 0 0 0 0 0 0 0 0 0 0 0 0 0 50 192 118 61 12 1 1 1 1 1 0 0 0 0 0 0
0 0 0 0 0 0 0 0 0 0 0 0 0 0 0 0 0 0 0 0 0 0 0 0 0 0 0 0 0 54 176 158 79 0 1 1 0 0 0 0 0 0 0 0
0 0 1 0 0 0 0 0 0 2 0 0 0 0 0 0 0 0 0 0 0 0 0 0 0 0 0 0 0 9 94 135 81 13 0 0 0 1 0 0 0 0 0 0
0 1 0 0 0 0 0 0 0 0 0 0 0 0 0 0 0 0 0 0 0 0 0 0 0 0 0 0 0 0 0 42 77 22 4 0 0 0 1 1 1 1 0 0
1 1 0 0 0 0 0 0 0 0 0 0 0 0 0 0 0 0 0 0 0 0 0 0 0 0 0 0 0 0 0 0 0 12 1 0 0 0 0 1 2 2 2 2
0 1 1 0 0 0 0 0 0 0 0 0 0 0 0 0 0 0 0 0 0 0 0 0 0 0 0 0 0 0 0 0 0 1 2 0 0 0 0 0 0 0 1 1
0 0 1 1 0 0 0 0 0 0 0 0 0 0 0 0 0 0 0 0 0 0 0 0 0 0 0 0 0 0 0 0 0 0 0 1 0 0 0 0 1 1 2 2
0 0 0 0 1 0 0 0 0 0 0 0 0 0 0 0 0 0 0 0 0 0 0 0 0 0 0 0 0 0 0 0 0 0 0 0 0 0 0 0 0 0 0 1
0 0 0 0 0 0 0 0 0 4 0 0 0 0 0 0 0 0 0 0 0 0 0 0 0 0 0 0 0 0 0 0 0 0 0 0 0 0 0 1 1 1 1 1
0 0 1 0 0 0 0 0 0 0 0 0 0 0 0 0 0 0 0 0 0 0 0 0 0 0 0 0 0 0 0 0 0 0 0 0 0 0 0 0 0 0 0 0
0 0 0 0 0 0 0 0 0 0 0 0 0 0 0 0 0 0 0 0 0 0 0 0 0 0 0 0 0 0 0 0 0 0 0 0 0 0 0 0 0 0 0 0
0 0 0 0 0 0 0 0 0 0 0 0 0 0 0 0 0 0 0 0 0 0 0 0 0 0 0 0 0 0 0 0 0 0 0 0 0 0 0 0 0 0 0 0
0 0 0 0 0 0 1 0 0 0 0 0 0 0 0 0 0 0 0 0 0 0 0 0 0 0 0 0 0 0 0 0 0 0 0 0 0 0 0 0 0 0 0 0
0 0 0 0 0 0 0 2 2 0 0 0 0 0 0 0 1 2 2 2 2 2 2 1 2 1 0 0 0 0 0 0 0 0 0 0 0 0 0 0 0 0 0 0
CIN
-0 -0 -0 -0 -0 -0 -0 -0 -0 -0 -0 -0 -0 -0 -0 -0 -0 -0 -0 -0 -0 -0 -0 -97 -5 -0 -45 -103 -102 -76 -0 -0 -0 -0 -0 -0 -0 -0 -0 -0 -0 -0 -0 -0
-0 -0 -0 -0 -0 -0 -0 -0 -0 -0 -0 -0 -0 -0 -0 -0 -0 -0 -0 -0 -0 -0 -0 -85 -33 -20 -47 -85 -163 -0 -0 -0 -0 -0 -0 -0 -0 -0 -0 -0 -0 -0 -0 -0
-0 -0 -0 -0 -0 -0 -0 -0 -0 -0 -0 -0 -0 -0 -0 -0 -0 -0 -0 -0 -0 -0 -0 -24 -36 -40 -79 -115 -206 -0 -0 -0 -0 -0 -0 -0 -0 -0 -0 -0 -0 -0 -0 -0
-0 -0 -0 -0 -0 -0 -0 -0 -0 -0 -0 -0 -0 -0 -0 -0 -0 -0 -0 -0 -0 -0 -0 -0 -78 -32 -106 -185 -16 -0 -0 -0 -0 -0 -0 -0 -0 -0 -0 -0 -0 -0 -0 -0
-0 -0 -0 -0 -0 -0 -0 -0 -0 -0 -0 -0 -0 -0 -0 -0 -0 -0 -0 -0 -0 -0 -0 -0 -63 -83 -133 -84 -0 -0 -0 -0 -0 -0 -0 -0 -0 -0 -0 -0 -0 -0 -0 -0
-0 -0 -0 -0 -0 -0 -0 -0 -0 -0 -0 -0 -0 -0 -0 -0 -0 -0 -0 -0 -0 -0 -0 -0 -57 -29 -103 -0 -0 -0 -0 -0 -0 -0 -0 -0 -0 -0 -0 -0 -0 -0 -0 -0
-0 -0 -0 -0 -0 -0 -0 -0 -0 -0 -0 -0 -0 -0 -0 -0 -0 -0 -0 -0 -0 -0 -0 -0 -0 -54 -17 -0 -0 -0 -0 -0 -0 -0 -0 -0 -0 -0 -0 -0 -0 -0 -0 -0
-0 -0 -0 -0 -0 -0 -0 -0 -0 -0 -0 -0 -0 -0 -0 -0 -0 -0 -0 -0 -0 -0 -0 -0 -0 -77 -72 -97 -98 -0 -0 -0 -0 -0 -0 -0 -0 -0 -0 -0 -0 -0 -0 -0
-0 -0 -0 -0 -0 -0 -0 -0 -0 -0 -0 -0 -0 -0 -0 -0 -0 -0 -0 -0 -0 -0 -0 -0 -0 -114 -65 -99 -102 -123 -0 -0 -0 -0 -0 -0 -0 -0 -0 -0 -0 -0 -0 -0
-0 -0 -0 -0 -0 -0 -0 -0 -0 -0 -0 -0 -0 -0 -0 -0 -0 -0 -0 -0 -0 -0 -0 -0 -0 -0 -79 -31 -69 -125 -152 -34 -0 -0 -0 -0 -0 -0 -0 -0 -0 -0 -0 -0
-0 -0 -0 -0 -0 -0 -0 -0 -0 -0 -0 -0 -0 -0 -0 -0 -0 -0 -0 -0 -0 -0 -0 -0 -0 -0 -20 -54 -28 -54 -91 -103 -73 -0 -0 -0 -0 -0 -0 -0 -0 -0 -0 -0
-0 -0 -0 -0 -0 -0 -0 -0 -0 -0 -0 -0 -0 -0 -0 -0 -0 -0 -0 -0 -0 -0 -0 -0 -0 -0 -0 -149 -51 -77 -113 -66 -151 -163 -0 -0 -0 -0 -0 -0 -0 -0 -0 -0
-0 -0 -0 -0 -0 -0 -0 -0 -0 -0 -0 -0 -0 -0 -0 -0 -0 -0 -0 -0 -0 -0 -0 -0 -0 -0 -0 -0 -68 -66 -113 -162 -174 -0 -0 -0 -0 -0 -0 -0 -0 -0 -0 -0
-0 -0 -0 -0 -0 -0 -0 -0 -0 -0 -0 -0 -0 -0 -0 -0 -0 -0 -0 -0 -0 -0 -0 -0 -0 -0 -0 -0 -0 -146 -84 -94 -128 -0 -0 -0 -0 -0 -0 -0 -0 -0 -0 -0
-0 -0 -0 -0 -0 -0 -0 -0 -0 -25 -0 -0 -0 -0 -0 -0 -0 -0 -0 -0 -0 -0 -0 -0 -0 -0 -0 -0 -0 -44 -109 -98 -128 -149 -0 -0 -0 -0 -0 -0 -0 -0 -0 -0
-0 -1 -0 -0 -0 -0 -0 -0 -0 -0 -0 -0 -0 -0 -0 -0 -0 -0 -0 -0 -0 -0 -0 -0 -0 -0 -0 -0 -0 -0 -0 -129 -134 -153 -189 -0 -0 -0 -0 -0 -0 -0 -0 -0
-0 -0 -0 -0 -0 -0 -1 -0 -0 -0 -0 -0 -0 -0 -0 -0 -0 -0 -0 -0 -0 -0 -0 -0 -0 -0 -0 -0 -0 -0 -0 -0 -0 -122 -84 -0 -0 -0 -0 -0 -0 -0 -0 -0
-0 -0 -0 -0 -0 -0 -0 -0 -0 -0 -0 -0 -0 -0 -0 -0 -0 -0 -0 -0 -0 -0 -0 -0 -0 -0 -0 -0 -0 -0 -0 -0 -0 -4 -8 -0 -0 -0 -0 -0 -0 -0 -0 -0
-0 -0 -1 -1 -0 -0 -0 -0 -14 -2 -0 -0 -0 -0 -0 -0 -0 -0 -0 -0 -0 -0 -0 -0 -0 -0 -0 -0 -0 -0 -0 -0 -0 -0 -0 -11 -0 -0 -0 -0 -0 -0 -0 -0
-0 -0 -0 -0 -0 -0 -0 -0 -0 -0 -0 -0 -0 -0 -0 -0 -0 -0 -0 -0 -0 -0 -0 -0 -0 -0 -0 -0 -0 -0 -0 -0 -0 -0 -0 -0 -0 -0 -0 -0 -0 -0 -0 -0
-0 -0 -0 -0 -0 -0 -0 -0 -0 -32 -0 -0 -0 -0 -0 -0 -0 -0 -0 -0 -0 -0 -0 -0 -0 -0 -0 -0 -0 -0 -0 -0 -0 -0 -0 -0 -0 -0 -0 -0 -0 -0 -0 -0
-0 -0 -0 -0 -0 -0 -0 -0 -1 -0 -0 -0 -0 -0 -0 -0 -0 -0 -0 -0 -0 -0 -0 -0 -0 -0 -0 -0 -0 -0 -0 -0 -0 -0 -0 -0 -0 -0 -0 -0 -0 -0 -0 -0
-7 -0 -0 -0 -0 -0 -0 -0 -0 -0 -0 -0 -0 -0 -0 -0 -0 -0 -0 -0 -0 -0 -0 -0 -0 -0 -0 -0 -0 -0 -0 -0 -0 -0 -0 -0 -0 -0 -0 -0 -0 -0 -0 -0
-0 -0 -0 -0 -0 -0 -0 -0 -0 -0 -0 -0 -0 -0 -0 -0 -0 -0 -0 -0 -0 -0 -0 -0 -0 -0 -0 -0 -0 -0 -0 -0 -0 -0 -0 -0 -0 -0 -0 -0 -0 -0 -0 -0
-0 -0 -0 -0 -0 -0 -0 -0 -0 -0 -0 -0 -0 -0 -0 -0 -0 -0 -0 -0 -0 -0 -0 -0 -0 -0 -0 -0 -0 -0 -0 -0 -0 -0 -0 -0 -0 -0 -0 -0 -0 -0 -0 -0
-0 -0 -0 -0 -0 -0 -0 -0 -0 -0 -0 -0 -0 -0 -0 -0 -0 -0 -0 -0 -0 -0 -0 -0 -0 -0 -0 -0 -0 -0 -0 -0 -0 -0 -0 -0 -0 -0 -0 -0 -0 -0 -0 -0
Wind_Speed
15 18 19 17 13 18 23 23 20 18 17 18 15 13 13 14 12 39 42 41 40 39 33 28 24 24 25 27 28 35 30 27 25 23 23 23 22 20 21 20 19 19 16 11
18 20 17 17 16 17 21 25 25 26 21 26 18 16 15 14 15 19 41 42 41 38 36 27 25 25 21 25 25 17 27 24 25 26 26 26 23 23 23 22 22 21 17 14
18 21 20 15 19 20 21 22 26 27 30 23 32 23 21 14 5 8 22 37 39 39 36 32 28 27 23 21 21 18 23 28 28 26 25 24 23 23 25 26 26 23 19 16
20 20 18 19 22 18 28 19 22 25 30 30 29 27 22 20 12 3 12 28 35 37 35 30 28 30 28 25 21 19 20 21 24 24 31 30 29 29 30 29 28 25 22 19
23 21 20 22 23 14 23 18 22 25 27 31 25 23 21 22 19 15 7 6 27 33 33 34 29 30 32 29 24 20 19 22 22 27 34 35 33 32 29 30 29 27 24 21
27 24 24 24 22 15 17 21 24 25 25 28 21 20 24 21 17 16 16 12 14 24 31 34 31 28 29 27 27 24 23 23 21 23 32 41 37 34 32 32 31 28 26 24
30 29 27 22 24 19 18 22 30 30 27 27 19 23 18 16 14 11 6 4 25 22 24 29 34 32 29 30 29 26 26 27 26 30 33 39 44 37 37 33 32 30 29 28
39 48 27 19 21 21 17 18 24 34 29 28 21 24 21 15 17 13 12 12 13 19 21 23 29 31 30 30 30 30 28 27 25 27 30 37 42 41 37 34 34 32 30 29
37 39 24 20 19 17 19 22 20 26 27 33 26 24 24 20 20 10 15 16 14 16 20 23 25 28 29 28 29 28 28 27 24 29 34 38 38 42 41 38 34 34 32 29
31 41 29 26 22 22 21 16 24 23 32 34 28 26 22 16 17 9 12 15 14 15 19 20 22 26 26 28 28 28 29 29 25 26 24 26 37 40 42 39 37 32 35 31
32 34 36 26 28 26 25 26 23 22 25 32 34 29 15 11 14 13 12 12 16 21 23 23 22 23 24 26 28 28 26 26 29 28 28 26 37 36 34 38 37 34 30 30
32 35 45 41 32 29 30 30 27 32 32 30 32 31 15 17 14 14 15 11 19 26 28 28 26 24 23 24 23 27 28 27 26 29 31 31 30 27 32 31 34 29 28 26
36 38 49 47 38 33 35 31 28 29 29 35 34 30 16 20 15 10 11 20 28 32 32 28 27 26 23 24 26 25 26 30 31 32 32 32 33 32 31 32 32 30 29 26
38 40 47 53 42 30 35 36 33 34 39 38 37 33 26 23 17 15 23 30 36 33 29 30 29 28 24 22 22 26 30 28 28 31 35 35 33 35 35 35 37 34 32 29
39 49 45 51 53 48 46 39 32 35 37 39 36 35 30 30 32 34 37 33 35 36 31 32 30 29 29 24 21 22 24 25 24 26 31 36 36 36 36 35 36 35 34 33
38 52 49 62 52 50 55 51 46 43 38 41 41 40 31 35 27 31 33 35 34 33 33 32 31 29 28 25 22 24 21 22 23 25 26 29 32 34 35 36 33 38 35 35
52 50 52 63 55 53 56 50 49 49 44 40 44 39 39 47 38 38 38 33 31 32 32 33 30 27 24 23 23 23 22 21 21 23 25 26 28 32 36 37 39 40 40 37
49 49 47 57 54 64 52 48 43 46 51 46 49 45 44 45 43 35 29 32 31 30 30 28 26 25 21 20 18 18 19 20 20 20 22 23 24 27 31 35 38 38 35 37
26 38 45 53 58 55 57 45 39 41 52 44 41 42 40 35 33 34 25 24 24 24 25 24 23 22 21 20 18 17 17 17 18 19 20 20 20 22 23 27 30 32 31 34
24 24 33 37 51 58 55 50 46 37 56 38 38 39 39 27 32 27 18 19 20 20 21 20 19 18 19 21 19 16 17 16 17 18 18 18 17 18 20 23 25 27 28 30
33 35 26 33 46 50 44 36 25 43 39 29 28 29 24 25 23 17 14 16 17 17 16 17 17 18 18 17 15 14 13 16 17 16 16 15 16 16 17 16 17 18 20 20
33 32 25 21 33 44 35 42 36 29 24 23 18 17 14 14 12 11 13 14 14 15 15 15 14 15 15 14 13 12 12 13 13 12 12 13 14 15 16 16 17 18 19 20
24 27 31 30 23 12 23 41 30 26 17 16 9 10 7 7 9 10 11 12 13 13 13 13 12 12 13 14 13 12 13 12 11 11 11 12 13 14 15 16 17 18 19 21
20 15 13 18 13 6 18 21 22 21 17 10 5 4 5 6 7 9 9 11 11 12 12 11 11 12 12 14 14 14 14 13 12 12 13 15 16 17 17 17 17 18 18 19
17 17 18 16 13 12 9 6 7 3 2 1 4 5 4 4 6 6 7 9 9 10 12 12 11 12 13 14 14 15 16 15 15 15 15 16 17 17 18 19 19 20 20 20
22 14 12 14 20 17 13 2 1 6 3 4 6 7 7 7 6 8 8 8 9 10 13 12 12 13 15 17 18 19 19 19 18 18 18 19 18 19 19 20 20 20 20 20
Wind_Direction
330 329 328 334 335 337 337 337 340 345 348 352 348 312 272 258 236 255 260 259 257 257 263 259 257 250 245 242 238 226 219 223 224 225 228 236 239 241 243 244 245 245 249 256
322 317 326 331 333 332 331 332 334 340 357 346 348 294 281 257 236 219 260 259 257 258 257 257 252 248 242 244 243 230 230 224 228 232 236 239 238 243 243 243 243 244 249 253
308 327 338 334 330 327 327 328 331 332 337 347 342 352 10 20 48 181 246 262 259 258 255 254 250 245 243 242 243 240 235 234 236 237 238 239 237 243 243 242 243 245 247 252
310 318 318 321 322 323 321 332 331 333 334 334 346 343 2 12 16 20 200 276 263 261 256 254 249 246 241 243 243 242 239 228 234 239 238 235 235 239 242 242 242 244 246 250
312 314 315 315 317 318 319 334 331 329 329 329 339 339 352 1 2 6 37 170 277 263 258 251 250 247 246 243 241 241 245 240 221 241 239 239 240 240 242 241 241 243 246 249
298 309 310 313 316 311 326 324 326 326 325 322 335 337 340 350 11 20 27 37 334 283 265 255 251 250 244 241 240 239 241 248 248 242 235 238 238 238 238 240 241 243 246 249
303 299 304 305 305 307 307 314 311 312 314 316 334 329 332 344 352 2 31 135 296 296 279 260 251 248 246 242 239 240 244 254 250 251 234 234 236 240 238 240 241 242 246 250
296 295 298 298 296 302 293 299 304 303 305 311 324 318 328 349 346 1 11 210 338 294 287 276 257 249 244 243 242 243 246 250 255 245 237 233 236 239 241 243 245 245 248 251
294 292 300 295 298 296 299 290 305 303 306 303 308 315 319 331 328 345 358 353 355 318 297 283 268 256 247 246 245 244 244 250 251 242 240 236 237 239 242 245 248 250 250 251
297 290 292 290 290 288 288 293 293 296 294 295 302 304 309 331 341 355 0 359 354 353 315 300 277 260 256 249 249 249 249 246 246 236 236 241 239 244 244 247 248 250 252 253
296 289 288 287 277 275 280 279 285 291 289 290 294 298 317 321 335 328 335 346 325 310 298 305 291 276 267 259 251 251 251 249 247 245 243 248 247 250 248 248 248 250 251 253
299 288 278 278 285 281 275 272 267 274 281 285 287 288 316 316 322 327 330 355 328 303 294 289 289 289 277 268 260 253 253 252 251 252 249 248 248 247 248 245 247 247 248 246
301 285 278 277 279 278 273 270 267 272 278 273 275 285 314 315 298 294 330 325 319 302 293 296 291 285 287 277 265 262 257 255 255 253 253 252 250 250 248 247 245 245 250 246
294 277 271 271 275 285 273 269 261 260 266 270 268 279 286 298 296 279 301 311 305 306 300 291 291 286 294 288 279 269 264 262 260 255 253 252 253 253 254 252 252 247 247 249
287 276 277 275 271 271 273 273 269 260 261 266 274 274 280 282 281 284 294 303 305 295 297 296 293 286 281 286 289 284 276 268 266 261 257 254 254 256 256 254 251 248 248 252
283 277 278 272 276 272 266 265 265 264 265 267 271 274 278 281 285 291 295 296 297 298 293 293 295 293 284 283 290 285 285 278 269 266 263 260 257 258 257 254 257 251 251 254
277 276 273 269 270 274 265 259 260 263 263 264 265 271 276 271 278 284 290 293 295 295 297 297 295 302 302 288 285 286 287 284 278 271 268 265 263 262 259 258 255 254 256 261
275 270 267 267 268 262 265 268 266 262 261 260 264 269 271 272 275 283 288 289 294 297 299 302 305 305 308 301 295 295 291 287 283 282 276 272 269 267 265 263 261 258 262 260
282 272 267 260 260 265 264 267 262 261 261 259 261 266 269 275 277 276 289 295 299 304 305 307 307 304 305 299 300 300 299 294 289 287 283 281 278 274 271 268 267 266 266 263
318 287 268 266 260 260 261 264 263 266 259 262 259 259 262 270 269 276 292 299 306 312 312 312 314 317 307 303 301 302 299 298 293 291 290 287 287 283 279 274 273 271 270 269
313 306 277 267 267 265 258 260 272 252 261 265 262 263 259 259 272 284 296 307 314 319 322 323 322 321 315 315 316 307 306 300 300 299 296 293 289 288 287 286 283 279 278 281
288 294 292 284 279 269 255 244 249 265 271 271 260 255 257 265 278 291 302 313 320 323 327 331 335 333 333 333 331 324 317 317 317 313 307 301 299 295 293 291 291 287 285 283
304 292 283 264 265 267 274 242 253 259 263 270 270 270 255 266 283 298 309 317 324 329 334 340 344 348 346 348 345 337 328 333 336 332 323 315 314 311 307 301 297 295 294 291
287 269 227 268 217 191 259 255 253 258 258 278 286 268 282 293 297 307 318 324 331 335 338 349 351 348 350 346 350 352 345 346 349 340 324 318 314 312 311 310 307 302 298 296
297 276 278 239 203 261 332 287 253 241 238 319 356 10 342 340 328 337 341 346 348 350 350 353 350 346 342 335 335 338 340 339 339 335 332 323 316 316 313 311 308 305 303 301
314 291 273 235 259 228 206 16 88 76 40 10 42 29 11 25 19 24 15 3 3 0 352 355 348 339 332 330 327 321 325 327 324 323 321 317 316 317 315 310 310 313 309 307